{"data":{"norad_id":63953,"intl_designator":"2025-099B","name":"STARLINK-34137","alt_names":[],"object_type":"PAYLOAD","status":"ACTIVE","operator":null,"country":"US","launch_date":"2025-05-13","launch_site_code":"AFETR","launch_vehicle":null,"mission":null,"orbit_class":"UNKNOWN","rcs_meters":null,"size_class":null,"mass_kg":null,"dimensions":null,"purposes":["comms"],"wikipedia_slug":null,"has_3d_model":false,"image_url":null,"decayed_at":null,"tle_current":{"epoch":"2026-05-25T04:16:40.761984Z","epoch_age_seconds":49872,"freshness":"FRESH","line1":"1 63953U 25099B   26145.17824956  .00014347  00000+0  52965-3 0  9999","line2":"2 63953  42.9972 104.3054 0000943 258.0721 102.0025 15.27593779 59031","mean_motion":15.27593779,"eccentricity":9.43e-5,"inclination_deg":42.9972,"raan_deg":104.3054,"arg_perigee_deg":258.0721,"mean_anomaly_deg":102.0025,"bstar":0.00052965,"rev_number":5903,"period_min":94.265898421153,"perigee_km":482.36083110868,"apogee_km":483.65484302495,"semimajor_km":6861.1448370668,"source":"CELESTRAK","updated_at":"2026-05-25T13:38:20.210572Z"}}}